TimeCDT,TemperatureF,Dew PointF,Humidity,Sea Level PressureIn,VisibilityMPH,Wind Direction,Wind SpeedMPH,Gust SpeedMPH,PrecipitationIn,Events,Conditions,WindDirDegrees,DateUTC
12:58 AM,52.9,43.9,71,29.96,10.0,SE,9.2,-,N/A,,Clear,140,2013-10-18 05:58:00
1:58 AM,52.0,44.2,75,29.96,10.0,ENE,5.8,-,N/A,,Clear,70,2013-10-18 06:58:00
2:58 AM,49.8,44.6,82,29.96,10.0,ENE,8.1,-,N/A,,Clear,70,2013-10-18 07:58:00
3:43 AM,53.6,46.4,77,29.99,10.0,East,6.9,-,N/A,,Overcast,100,2013-10-18 08:43:00
3:58 AM,54.5,46.0,73,29.96,10.0,East,8.1,-,N/A,,Overcast,100,2013-10-18 08:58:00
4:23 AM,53.6,46.4,77,29.97,10.0,East,6.9,-,N/A,,Mostly Cloudy,100,2013-10-18 09:23:00
4:48 AM,53.6,46.4,77,29.96,10.0,East,9.2,-,N/A,,Mostly Cloudy,90,2013-10-18 09:48:00
4:53 AM,53.6,46.4,77,29.96,10.0,East,9.2,-,N/A,,Mostly Cloudy,90,2013-10-18 09:53:00
4:58 AM,53.8,46.0,75,29.93,10.0,East,8.1,-,N/A,,Mostly Cloudy,90,2013-10-18 09:58:00
5:08 AM,51.8,46.4,82,29.95,10.0,East,8.1,-,N/A,,Scattered Clouds,100,2013-10-18 10:08:00
5:58 AM,54.1,45.9,74,29.91,10.0,ESE,11.5,-,N/A,,Scattered Clouds,110,2013-10-18 10:58:00
6:23 AM,53.6,46.4,77,29.93,10.0,ESE,6.9,-,N/A,,Scattered Clouds,110,2013-10-18 11:23:00
6:33 AM,55.4,46.4,72,29.93,10.0,East,8.1,-,N/A,,Mostly Cloudy,90,2013-10-18 11:33:00
6:58 AM,56.5,46.2,68,29.92,10.0,ENE,8.1,-,N/A,Thunderstorm,Overcast,70,2013-10-18 11:58:00
6:59 AM,57.2,46.4,67,29.94,10.0,ENE,6.9,-,N/A,Thunderstorm,Thunderstorm,70,2013-10-18 11:59:00
7:03 AM,57.2,46.4,67,29.95,10.0,East,5.8,-,N/A,Rain-Thunderstorm,Light Thunderstorms and Rain,80,2013-10-18 12:03:00
7:10 AM,55.4,48.2,77,29.93,9.0,East,9.2,-,N/A,Rain-Thunderstorm,Thunderstorms and Rain,80,2013-10-18 12:10:00
7:14 AM,53.6,50.0,88,29.94,7.0,ENE,10.4,-,N/A,Rain-Thunderstorm,Light Rain,70,2013-10-18 12:14:00
7:17 AM,53.6,50.0,88,29.94,6.0,East,6.9,-,N/A,Rain-Thunderstorm,Light Thunderstorms and Rain,100,2013-10-18 12:17:00
7:25 AM,53.6,50.0,88,29.94,9.0,ESE,10.4,-,N/A,Thunderstorm,Thunderstorm,110,2013-10-18 12:25:00
7:33 AM,53.6,51.8,94,29.94,10.0,ENE,10.4,-,N/A,Rain-Thunderstorm,Light Thunderstorms and Rain,70,2013-10-18 12:33:00
7:41 AM,53.6,51.8,94,29.95,10.0,ENE,8.1,-,N/A,Thunderstorm,Light Drizzle,60,2013-10-18 12:41:00
7:43 AM,53.6,51.8,94,29.95,10.0,NE,8.1,-,N/A,Thunderstorm,Overcast,50,2013-10-18 12:43:00
7:58 AM,53.4,52.9,98,29.94,10.0,ENE,10.4,-,0.06,,Overcast,70,2013-10-18 12:58:00
8:58 AM,55.4,53.6,94,29.96,10.0,East,9.2,-,N/A,,Overcast,80,2013-10-18 13:58:00
9:18 AM,53.6,53.6,100,29.97,10.0,ENE,8.1,-,N/A,,Overcast,70,2013-10-18 14:18:00
9:58 AM,55.2,54.5,97,29.96,10.0,East,8.1,-,N/A,,Overcast,100,2013-10-18 14:58:00
10:08 AM,55.4,55.4,100,29.97,10.0,East,9.2,-,N/A,,Overcast,90,2013-10-18 15:08:00
10:13 AM,55.4,55.4,100,29.97,10.0,East,6.9,-,N/A,,Overcast,100,2013-10-18 15:13:00
10:18 AM,55.4,55.4,100,29.97,10.0,East,5.8,-,N/A,,Overcast,100,2013-10-18 15:18:00
10:25 AM,55.4,53.6,94,29.98,10.0,East,9.2,-,N/A,,Light Drizzle,100,2013-10-18 15:25:00
10:42 AM,55.4,55.4,100,29.99,6.0,East,9.2,-,N/A,,Light Drizzle,100,2013-10-18 15:42:00
10:52 AM,55.4,55.4,100,29.99,2.5,East,8.1,-,N/A,,Light Drizzle,100,2013-10-18 15:52:00
10:57 AM,55.4,55.4,100,29.99,2.5,ESE,9.2,-,N/A,,Drizzle,110,2013-10-18 15:57:00
10:58 AM,55.2,55.2,100,29.98,2.5,ESE,10.4,-,0.02,,Drizzle,120,2013-10-18 15:58:00
11:08 AM,55.4,55.4,100,29.99,3.0,East,8.1,-,N/A,,Drizzle,100,2013-10-18 16:08:00
11:13 AM,55.4,55.4,100,29.99,2.5,East,8.1,-,N/A,,Drizzle,100,2013-10-18 16:13:00
11:18 AM,55.4,55.4,100,29.99,2.0,East,10.4,-,N/A,,Drizzle,100,2013-10-18 16:18:00
11:28 AM,55.4,55.4,100,29.99,2.5,East,9.2,-,N/A,,Light Drizzle,90,2013-10-18 16:28:00
11:53 AM,55.4,55.4,100,29.98,3.0,ESE,11.5,-,N/A,,Light Drizzle,110,2013-10-18 16:53:00
11:58 AM,55.0,55.0,100,29.97,3.0,ESE,9.2,-,0.05,,Light Drizzle,120,2013-10-18 16:58:00
12:07 PM,55.4,55.4,100,29.98,4.0,ESE,8.1,-,N/A,,Overcast,120,2013-10-18 17:07:00
12:12 PM,55.4,55.4,100,29.98,4.0,ESE,8.1,-,N/A,,Overcast,120,2013-10-18 17:12:00
12:15 PM,55.4,55.4,100,29.98,4.0,ESE,8.1,-,N/A,,Light Drizzle,120,2013-10-18 17:15:00
12:25 PM,55.4,55.4,100,29.98,2.5,ESE,4.6,-,N/A,,Light Drizzle,110,2013-10-18 17:25:00
12:35 PM,55.4,55.4,100,29.98,2.5,East,5.8,-,N/A,,Light Drizzle,80,2013-10-18 17:35:00
12:45 PM,55.4,55.4,100,29.98,1.8,NE,6.9,-,N/A,Rain,Light Rain,40,2013-10-18 17:45:00
12:58 PM,55.6,55.6,100,29.97,2.0,NNE,8.1,-,0.05,Rain,Rain,30,2013-10-18 17:58:00
1:03 PM,55.4,55.4,100,29.98,2.0,NNE,8.1,-,N/A,Rain,Light Rain,30,2013-10-18 18:03:00
1:08 PM,55.4,55.4,100,29.98,2.5,NNE,10.4,-,N/A,Rain,Rain,30,2013-10-18 18:08:00
1:18 PM,55.4,55.4,100,29.98,3.0,NNE,9.2,-,N/A,Rain,Light Rain,30,2013-10-18 18:18:00
1:28 PM,55.4,55.4,100,29.98,3.0,NNE,18.4,-,N/A,Rain,Rain,30,2013-10-18 18:28:00
1:43 PM,51.8,51.8,100,29.98,4.0,NNE,18.4,-,N/A,Rain,Light Rain,30,2013-10-18 18:43:00
1:44 PM,51.8,51.8,100,29.98,4.0,NNE,16.1,-,N/A,,Overcast,20,2013-10-18 18:44:00
1:45 PM,51.8,51.8,100,29.98,4.0,NNE,17.3,-,N/A,Rain,Light Rain,20,2013-10-18 18:45:00
1:51 PM,51.8,51.8,100,29.99,5.0,North,20.7,-,N/A,,Overcast,10,2013-10-18 18:51:00
1:52 PM,51.8,51.8,100,29.99,5.0,North,18.4,-,N/A,Rain,Light Rain,10,2013-10-18 18:52:00
1:57 PM,50.0,50.0,100,29.99,5.0,North,19.6,26.5,N/A,Rain,Light Rain,10,2013-10-18 18:57:00
1:58 PM,50.5,50.5,100,29.99,5.0,North,19.6,26.5,0.04,Rain,Light Rain,10,2013-10-18 18:58:00
2:22 PM,48.2,48.2,100,29.99,3.0,North,23.0,28.8,N/A,,Overcast,10,2013-10-18 19:22:00
2:35 PM,48.2,48.2,100,30.00,4.0,North,23.0,27.6,N/A,Rain,Light Rain,10,2013-10-18 19:35:00
2:55 PM,46.4,46.4,100,30.01,8.0,North,18.4,28.8,N/A,Rain,Light Rain,10,2013-10-18 19:55:00
2:58 PM,47.1,47.1,100,30.01,9.0,North,23.0,31.1,0.02,Rain,Light Rain,10,2013-10-18 19:58:00
3:11 PM,46.4,46.4,100,30.02,10.0,North,25.3,34.5,N/A,,Overcast,10,2013-10-18 20:11:00
3:14 PM,46.4,46.4,100,30.02,10.0,North,24.2,33.4,N/A,,Light Drizzle,10,2013-10-18 20:14:00
3:24 PM,46.4,46.4,100,30.03,10.0,North,26.5,32.2,N/A,,Overcast,10,2013-10-18 20:24:00
3:49 PM,44.6,44.6,100,30.04,10.0,North,25.3,31.1,N/A,,Overcast,10,2013-10-18 20:49:00
3:58 PM,45.0,45.0,100,30.05,10.0,North,26.5,35.7,0.00,,Overcast,360,2013-10-18 20:58:00
3:59 PM,44.6,44.6,100,30.05,10.0,North,26.5,35.7,N/A,,Light Drizzle,10,2013-10-18 20:59:00
4:24 PM,42.8,42.8,100,30.07,9.0,North,26.5,35.7,N/A,Rain,Light Rain,10,2013-10-18 21:24:00
4:29 PM,42.8,42.8,100,30.08,10.0,North,25.3,35.7,N/A,,Overcast,360,2013-10-18 21:29:00
4:34 PM,42.8,42.8,100,30.08,10.0,North,25.3,33.4,N/A,,Light Drizzle,360,2013-10-18 21:34:00
4:58 PM,42.3,42.3,100,30.10,8.0,North,20.7,29.9,0.00,Rain,Light Rain,360,2013-10-18 21:58:00
5:03 PM,42.8,42.8,100,30.09,8.0,North,23.0,32.2,N/A,Rain,Light Rain,360,2013-10-18 22:03:00
5:18 PM,42.8,41.0,93,30.10,10.0,North,23.0,32.2,N/A,,Light Drizzle,360,2013-10-18 22:18:00
5:55 PM,42.8,41.0,93,30.12,10.0,North,24.2,31.1,N/A,,Overcast,10,2013-10-18 22:55:00
5:58 PM,42.8,41.7,96,30.13,10.0,North,19.6,31.1,0.00,,Overcast,10,2013-10-18 22:58:00
6:58 PM,43.3,40.5,90,30.14,10.0,North,19.6,27.6,N/A,,Overcast,360,2013-10-18 23:58:00
7:58 PM,41.7,39.0,90,30.19,10.0,North,19.6,24.2,N/A,,Scattered Clouds,360,2013-10-19 00:58:00
9:53 PM,41.0,37.4,87,30.22,10.0,North,13.8,-,N/A,,Scattered Clouds,360,2013-10-19 02:53:00
9:58 PM,41.4,36.9,84,30.23,10.0,North,12.7,-,N/A,,Scattered Clouds,360,2013-10-19 02:58:00